Home > Weather > Søgne > Past weeks

Flag for Norway Past Weather in Søgne, Norway — Yesterday and Last 2 Weeks

Now
64 °F

Mild.


Feels Like: 64 °F
Forecast: 54 / 65 °F
Wind: 7 mph from East

Location: Oksoy Fyr

Current Time: Aug 26, 2016 at 12:34:53 PM

Latest Report: Aug 26, 2016 at 11:00 AM


Visibility: N/A

Pressure: 29.78 "Hg

Humidity: 95%

Dew Point: 62 °F

Location of SøgneLocation

Past Weather in Søgne — Graph

°F

Søgne Temperature Yesterday

Maximum temperature yesterday: 64 °F (at 1:00 PM)
Minimum temperature yesterday: 62 °F (at 8:00 AM)
Average temperature yesterday: 63 °F

High & Low Weather Summary for the Past Weeks

 TemperatureHumidityPressure
High69 °F (Aug 14, 5:00 PM)97% (Aug 25, 6:00 AM)30.27 "Hg (Aug 25, 6:00 AM)
Low53 °F (Aug 12, 3:00 AM)38% (Aug 15, 2:00 PM)29.74 "Hg (Aug 13, 3:00 PM)
Average61 °F81%30.00 "Hg
* Reported Aug 11 11:00 AM — Aug 26 11:00 AM, Søgne, Weather by CustomWeather, © 2016

Note: Actual official high and low records may vary slightly from our data, if they occured in-between our weather recording intervals... More about our weather records

Advertising

Søgne Weather History for the Previous 24 Hours

Scroll right to see more
 ConditionsComfort  
Time TempWeatherWind HumidityBarometerVisibility
11:00 AM
Fri, Aug 26
64 °FMild.7 mph95%29.78 "HgN/A
10:00 AM65 °FMild.7 mph94%29.79 "HgN/A
9:00 AM64 °FMild.8 mph96%29.81 "HgN/A
8:00 AM64 °FMild.9 mph96%29.82 "HgN/A
7:00 AM64 °FMild.10 mph95%29.84 "HgN/A
6:00 AM63 °FMild.9 mph96%29.86 "HgN/A
5:00 AM64 °FMild.7 mph95%29.88 "HgN/A
4:00 AM63 °FMild.5 mph95%29.92 "HgN/A
3:00 AM63 °FMild.6 mph95%29.91 "HgN/A
2:00 AM63 °FMild.5 mph96%29.94 "HgN/A
1:00 AM64 °FMild.6 mph96%29.98 "HgN/A
12:00 AM63 °FMild.5 mph96%29.98 "HgN/A
11:00 PM
Thu, Aug 25
63 °FMild.3 mph96%30.00 "HgN/A
10:00 PM64 °FMild.3 mph96%30.01 "HgN/A
9:00 PM64 °FMild.2 mph97%30.02 "HgN/A
8:00 PM64 °FMild.3 mph97%30.00 "HgN/A
7:00 PM64 °FMild.2 mph97%30.03 "HgN/A
6:00 PM64 °FMild.1 mph97%30.06 "HgN/A
5:00 PM64 °FMild.2 mph97%30.07 "HgN/A
4:00 PM64 °FMild.3 mph96%30.08 "HgN/A
3:00 PM64 °FMild.1 mph96%30.08 "HgN/A
2:00 PM64 °FMild.1 mph97%30.09 "HgN/A
1:00 PM64 °FMild.2 mph97%30.08 "HgN/A
12:00 PM63 °FMild.3 mph97%30.07 "HgN/A
Weather by CustomWeather, © 2016

See weather overviewHow to use our weather pages